Probability
0 0 0 0 0 0 0 0 0 0 0 0 0 0 0 0 0 0 0 0 0 0 0 0 0 0 0 0 0 0 0 0 0 0 0 0 0 0 0 0 0 0 0
0 0 0 0 0 0 0 0 0 0 0 0 0 0 0 0 0 0 0 0 0 0 0 0 0 0 0 0 0 0 0 0 0 0 0 0 0 0 0 0 0 0 0
0 0 0 0 0 0 0 0 0 0 0 0 0 0 0 0 0 0 0 0 0 0 0 0 0 0 0 0 0 0 0 0 0 0 0 0 0 0 0 0 0 0 0
0 0 0 0 0 0 0 0 0 0 0 0 0 0 0 0 0 0 0 0 0 0 0 0 0 0 0 0 0 0 0 0 0 0 0 0 0 0 0 0 0 0 0
0 0 0 0 0 0 0 0 0 0 0 0 0 0 0 0 0 0 0 0 0 0 0 0 0 0 0 0 0 0 0 0 0 0 0 0 0 0 0 0 0 0 0
0 0 0 0 0 0 0 0 0 0 0 0 0 0 0 0 0 0 0 0 0 0 0 0 0 0 0 0 0 0 0 0 0 0 0 0 0 0 0 0 0 0 0
0 0 0 0 0 0 0 0 0 0 0 0 0 0 0 0 0 0 0 0 0 0 0 0 0 0 0 0 0 0 0 0 0 0 0 0 0 0 0 0 0 0 0
0 0 0 0 0 0 0 0 0 0 0 0 0 0 0 0 0 0 0 0 0 0 0 0 0 0 0 0 0 0 0 0 0 0 0 0 0 0 0 0 0 0 0
0 0 0 0 0 0 0 0 0 0 0 0 0 0 0 0 0 0 0 0 0 0 0 0 0 0 0 0 0 0 0 0 0 0 0 0 0 0 0 0 0 0 0
0 0 0 0 0 0 0 0 0 0 0 0 0 0 0 0 0 0 0 0 0 0 0 0 0 0 0 0 0 0 0 0 0 0 0 0 0 0 0 0 0 0 0
0 0 0 0 0 0 0 0 0 0 0 0 0 0 0 0 0 0 0 0 0 0 0 0 0 0 0 0 0 0 0 0 0 0 0 0 0 0 0 0 0 0 0
0 0 0 0 0 0 0 0 0 0 0 0 0 0 0 0 0 0 0 0 0 0 0 0 0 0 0 0 0 0 0 0 0 0 0 0 0 0 0 0 0 0 0
0 0 0 0 0 0 0 0 0 0 0 0 0 0 0 0 0 0 0 0 0 0 0 0 0 0 0 0 0 0 0 0 0 0 0 0 0 0 0 0 0 0 0
0 0 0 0 0 0 0 0 0 0 0 0 0 0 0 0 0 0 0 0 0 0 0 0 0 0 0 0 0 0 0 0 0 0 0 0 0 0 0 0 0 0 0
0 0 0 0 0 0 0 0 0 0 0 0 0 0 0 0 0 0 0 0 0 0 0 0 0 0 0 0 0 0 0 0 0 0 0 0 0 0 0 0 0 0 0
0 0 0 0 0 0 0 0 0 0 0 0 0 0 0 0 0 0 0 0 0 0 0 0 0 0 0 0 0 0 0 0 0 0 0 0 0 0 0 0 0 0 0
0 0 0 0 0 0 0 0 0 0 0 0 0 0 0 0 0 0 0 0 0 0 0 0 0 0 0 0 0 0 0 0 0 0 0 0 0 0 0 0 0 0 0
0 0 0 0 0 0 0 0 0 0 0 0 0 0 0 0 0 0 0 0 0 0 0 0 0 0 0 0 0 0 0 0 0 0 0 0 0 0 0 0 0 0 0
0 0 0 0 0 0 0 0 0 0 0 0 0 0 0 0 0 0 0 0 0 0 0 0 0 0 0 0 0 0 0 0 0 0 0 0 0 0 0 0 0 0 0
0 0 0 0 0 0 0 0 0 0 0 0 0 0 0 0 0 0 0 0 0 0 0 0 0 0 0 0 0 0 0 0 0 0 0 0 0 0 0 0 0 0 0
0 0 0 0 0 0 0 0 0 0 0 0 0 0 0 0 0 0 0 0 0 0 0 0 0 0 0 0 0 0 0 0 0 0 0 0 0 0 0 0 0 0 0
0 0 0 0 0 0 0 0 0 0 0 0 0 0 0 0 0 0 0 0 0 0 0 0 0 0 0 0 0 0 0 0 0 0 0 0 0 0 0 0 0 0 0
0 0 0 0 0 0 0 0 0 0 0 0 0 0 0 0 0 0 0 0 0 0 0 0 0 0 0 0 0 0 0 0 0 0 0 0 0 0 0 0 0 0 0
0 0 0 0 0 0 0 0 0 0 0 0 0 0 0 0 0 0 0 0 0 0 0 0 0 0 0 0 0 0 0 0 0 0 0 0 0 0 0 0 0 0 0
0 0 0 0 0 0 0 0 0 0 0 0 0 0 0 0 0 0 0 0 0 0 0 0 0 0 0 0 0 0 0 0 0 0 0 0 0 0 0 0 0 0 0
0 0 0 0 0 0 0 0 0 0 0 0 0 0 0 0 0 0 0 0 0 0 0 0 0 0 0 0 0 0 0 0 0 0 0 0 0 0 0 0 0 0 0
Wind_Speed
16 16 16 16 15 14 13 14 13 11 12 12 12 12 11 11 10 9 9 10 10 8 7 8 8 7 5 4 4 3 3 2 2 1 1 1 2 4 5 5 5 6 5
13 14 14 13 13 13 13 13 12 12 12 12 12 12 11 11 11 11 11 11 11 11 10 9 9 7 7 5 4 4 3 2 2 2 1 1 2 3 5 5 5 5 6
10 11 11 12 13 13 12 11 12 12 12 11 12 12 12 12 11 11 11 11 10 10 11 10 10 10 8 6 6 5 4 3 2 2 2 1 2 3 5 4 5 5 5
9 10 11 11 11 10 10 11 11 12 12 13 12 12 12 12 12 11 11 11 10 10 9 9 10 9 9 9 6 6 5 4 3 2 2 2 2 2 3 4 5 5 6
8 9 9 8 8 8 9 9 9 10 11 11 11 10 11 10 11 13 12 12 12 11 9 8 8 7 8 7 6 6 6 4 3 3 2 2 2 2 3 4 5 6 6
8 8 6 6 7 8 8 8 9 9 9 10 11 12 12 9 14 17 14 12 11 12 11 9 8 8 9 9 8 7 6 5 4 3 2 2 2 2 3 4 5 5 4
7 6 6 6 7 7 8 9 9 10 10 10 10 11 11 12 20 19 16 12 12 11 11 10 7 7 8 7 8 8 6 5 5 4 4 4 3 2 3 4 4 5 5
7 7 7 7 7 7 8 9 8 8 10 10 10 11 10 13 20 20 17 11 10 10 10 10 10 10 8 8 7 6 5 5 5 4 4 3 3 3 3 4 4 5 6
9 9 8 8 8 9 9 9 8 8 8 8 9 10 11 13 19 21 18 10 9 9 8 9 9 9 12 12 8 7 6 4 4 4 4 4 4 3 3 2 3 3 4
9 8 8 8 9 10 9 8 7 7 8 8 8 8 10 12 19 21 18 9 9 8 7 7 8 10 12 13 8 7 7 6 4 3 4 4 3 3 3 3 3 3 3
5 6 7 7 7 8 8 7 8 8 9 8 9 7 7 9 17 20 17 8 9 9 8 7 7 13 13 14 10 7 7 5 4 4 4 3 3 3 3 3 3 4 4
6 7 7 6 6 6 8 8 9 10 11 10 9 8 6 6 10 15 17 12 11 8 8 7 8 14 14 13 9 8 9 6 4 4 4 4 4 3 3 3 3 4 4
6 6 6 6 6 7 9 10 9 9 8 8 9 9 8 6 8 14 15 15 14 7 6 9 11 13 12 9 9 9 7 5 5 5 5 4 3 3 3 2 3 3 5
6 6 6 7 7 7 6 7 8 9 9 9 9 9 8 8 8 8 8 9 10 8 6 7 11 11 9 6 5 6 5 5 5 5 4 3 3 3 3 3 3 3 3
5 5 6 6 6 6 6 6 7 6 8 10 9 10 11 11 13 16 12 9 9 8 8 5 6 6 7 6 6 5 5 5 5 5 4 4 4 4 4 3 3 3 4
5 5 5 5 5 5 5 4 5 5 6 7 8 9 6 7 15 20 18 15 15 15 9 6 8 8 8 8 7 7 6 6 6 5 5 5 5 4 4 4 4 4 5
4 4 4 4 5 5 6 6 5 4 6 8 11 12 11 12 16 19 18 17 16 17 9 8 8 9 8 8 7 7 7 6 5 5 5 5 5 5 4 4 4 5 5
2 4 4 4 5 5 6 6 5 6 6 5 8 12 13 14 15 17 18 14 10 12 9 9 9 8 8 8 7 7 6 6 6 6 5 5 5 5 5 5 5 6 5
1 2 3 3 4 4 4 5 5 6 5 4 4 6 10 12 13 15 16 10 9 10 10 9 8 8 7 7 7 6 6 6 6 6 6 6 5 5 6 5 5 6 5
0 1 2 2 3 4 4 5 5 5 6 6 6 6 7 8 8 10 11 9 9 9 9 8 8 7 7 7 7 6 6 6 7 6 6 6 6 6 6 7 6 6 5
1 0 1 2 3 3 4 4 5 5 6 6 6 7 12 9 9 10 10 10 9 9 8 8 7 7 7 6 6 7 8 7 7 7 6 6 6 6 6 6 6 6 5
1 1 1 2 2 2 3 4 4 5 6 6 5 5 12 8 7 8 8 8 8 7 6 6 6 6 7 7 7 8 8 8 7 7 7 6 6 6 6 6 6 6 6
2 2 1 1 2 2 3 3 4 5 5 5 5 5 6 7 7 7 7 7 6 6 5 6 6 6 6 6 7 8 8 8 7 7 7 7 7 7 7 7 8 7 7
3 2 2 2 2 3 3 4 4 5 5 5 5 6 6 7 7 8 7 6 6 6 6 6 7 9 10 8 7 7 7 7 7 7 10 8 8 7 7 7 8 8 7
3 3 3 3 3 3 4 4 4 5 5 5 5 6 6 6 7 7 6 6 7 7 8 7 6 8 11 12 10 8 9 11 10 7 8 8 9 9 8 9 8 8 8
3 3 3 3 3 3 4 4 5 5 5 5 6 6 6 6 6 6 6 6 6 6 7 7 9 10 10 10 12 12 12 12 12 12 9 8 9 9 9 8 9 8 8
Wind_Direction
213 212 210 211 209 207 205 201 195 188 185 183 178 172 170 167 162 159 157 157 153 147 147 148 146 147 146 145 149 156 167 200 215 187 206 333 318 336 342 341 338 340 345
212 210 209 207 203 202 202 196 188 184 182 179 172 169 167 164 163 161 159 161 158 156 156 154 152 152 151 151 155 160 161 176 206 215 215 273 298 330 332 332 337 336 338
209 208 205 203 201 200 195 186 181 179 174 170 170 170 167 164 162 162 159 160 160 158 159 161 159 159 160 160 162 162 159 164 188 212 235 264 286 323 323 324 331 331 336
204 206 205 203 201 195 184 179 177 173 172 171 171 169 164 161 159 156 155 154 153 152 156 159 162 167 165 164 163 164 163 168 181 208 231 253 279 319 315 327 328 334 330
199 205 205 195 189 180 175 172 167 168 170 165 160 158 157 157 161 158 155 154 152 150 152 156 159 158 160 163 164 167 170 175 185 204 225 249 277 314 326 329 320 324 321
198 201 191 180 174 171 167 160 157 158 156 156 158 158 161 163 162 159 153 153 154 155 155 154 151 155 160 164 169 173 178 182 188 203 220 244 268 289 310 313 319 325 318
193 183 174 172 172 167 159 157 162 162 158 160 159 160 162 161 161 158 153 152 156 160 159 158 159 164 167 167 171 175 181 197 205 216 230 239 257 268 288 294 298 299 294
188 183 178 177 171 160 160 164 164 160 162 159 159 161 155 160 162 157 151 149 152 157 162 164 164 168 176 173 172 177 186 197 203 215 230 242 252 261 260 274 288 286 279
192 191 184 177 169 166 170 167 161 158 158 156 158 158 155 158 163 158 153 148 149 155 160 166 169 172 179 181 178 182 192 202 207 214 228 240 247 247 253 256 268 287 293
196 188 179 176 174 174 171 161 156 155 154 149 151 158 157 158 165 164 158 152 153 156 162 169 179 181 184 188 187 188 198 199 195 205 216 226 230 232 235 241 253 268 282
169 165 170 176 175 169 158 154 152 148 146 147 147 150 153 158 168 169 167 161 162 163 169 176 185 189 192 195 194 198 206 190 194 205 215 222 224 226 230 233 239 247 258
152 161 168 169 165 158 155 154 155 154 153 153 151 151 154 159 170 176 177 175 167 169 176 177 182 189 193 196 199 201 202 194 196 205 218 224 227 231 238 245 242 247 253
152 160 161 161 161 162 163 161 160 163 163 164 164 165 166 170 180 182 182 181 178 173 173 176 179 187 191 199 205 201 196 198 203 212 223 228 229 238 245 247 237 242 247
158 160 160 165 167 167 169 171 173 176 174 173 175 174 170 174 181 180 180 180 181 178 170 174 182 190 194 190 194 201 200 206 213 220 226 225 218 221 226 231 238 239 247
154 158 164 171 171 173 177 186 189 193 193 184 185 179 175 186 193 184 176 180 180 176 159 161 179 188 196 200 201 202 200 199 208 216 218 216 217 222 225 221 232 233 240
157 166 171 172 172 174 171 171 196 196 202 203 194 186 192 191 178 185 188 186 181 172 166 186 197 202 205 204 204 203 203 206 207 207 211 215 218 221 224 220 226 232 244
170 171 173 176 179 182 182 179 174 175 194 201 197 194 193 183 180 185 188 187 187 183 196 205 207 207 208 207 206 206 206 202 200 206 212 214 217 221 222 223 224 231 240
173 175 181 186 189 192 195 196 189 182 181 192 201 200 195 190 187 186 185 179 192 200 212 214 213 210 207 206 205 206 204 196 199 207 211 212 213 217 220 224 224 229 236
185 184 191 194 196 198 200 201 202 201 198 189 177 190 194 192 192 194 187 195 202 207 212 216 214 209 206 205 203 202 202 203 202 205 210 211 210 215 224 226 229 225 231
292 197 194 197 198 200 201 204 206 206 204 201 199 191 176 179 192 197 202 209 214 217 216 216 214 209 204 202 200 197 200 204 204 207 211 211 211 215 224 225 225 225 225
333 226 194 205 210 213 215 217 218 217 217 217 216 205 195 198 204 206 208 213 217 218 216 215 212 206 203 199 198 200 204 207 206 206 208 209 208 213 220 223 224 224 227
336 309 263 245 239 233 234 235 236 236 237 236 234 223 217 219 222 219 218 222 224 224 218 213 212 208 202 200 199 201 206 209 207 204 207 207 207 212 215 217 220 220 221
343 328 304 284 270 259 249 246 245 246 248 248 241 229 226 227 230 231 231 228 222 220 214 211 213 210 204 204 207 208 211 212 208 203 204 207 208 210 212 216 217 219 221
346 331 312 298 285 273 266 262 257 255 254 253 248 242 239 240 241 239 237 233 227 222 216 213 217 217 211 207 210 213 218 216 209 208 209 211 212 213 213 217 219 219 222
346 334 319 306 294 285 279 275 270 266 262 258 256 253 251 249 249 248 242 234 229 226 223 219 219 221 219 217 215 215 217 217 214 208 207 211 217 217 216 218 217 216 216
336 324 311 301 292 286 281 278 274 271 267 265 262 260 257 254 253 250 245 239 234 232 230 226 225 224 224 222 223 221 220 220 217 213 209 211 215 217 214 217 217 217 216